Regional Weather Roundup
Issued by NWS

Home | Current Version | Previous Version | Graphics & Text | Print | Product List | Glossary On
Versions: 1 2 3 4 5 6 7 8 9 10 11 12 13 14 15 16 17 18 19 20 21 22 23 24 25 26 27 28 29 30 31 32 33 34 35 36 37 38 39 40 41 42 43 44 45 46 47 48 49 50
918
ASUS43 KOAX 202310
RWRNE

WEATHER ROUNDUP FOR NEBRASKA
NATIONAL WEATHER SERVICE OMAHA NE
600 PM CDT FRI APR 20 2018

NOTES: SATELLITE DATA IS BEING USED TO AUGMENT CLOUD COVER ABOVE
       12000 FEET.
       "FAIR" INDICATES FEW OR NO CLOUDS BELOW 12,000 FEET WITH NO
       SIGNIFICANT WEATHER AND/OR OBSTRUCTIONS TO VISIBILITY.


NEZ001>004-019>022-054>056-210000-
NEBRASKA PANHANDLE

CITY           SKY/WX    TMP DP  RH WIND       PRES   REMARKS
SCOTTSBLUFF    CLOUDY    39  36  89 SE18G26   30.10R WCI  30
ALLIANCE       CLOUDY    37  37 100 SE23G32   30.12R WCI  26
CHADRON        CLOUDY    42  35  76 SE14      30.16R
GORDON         CLOUDY    40  37  87 SE10      30.19R WCI  34
KIMBALL        RAIN      37  35  95 SE25G36   30.07R WCI  25
SIDNEY         CLOUDY    35  33  92 SE17      30.10R WCI  25
$$

NEZ057>060-069>072-079>082-210000-
SOUTHWEST NEBRASKA

CITY           SKY/WX    TMP DP  RH WIND       PRES   REMARKS
NORTH PLATTE   LGT RAIN  43  38  82 SE14      30.23F
IMPERIAL       LGT RAIN  41  39  93 E17       30.17R
LEXINGTON      HVY RAIN  45  38  76 CALM      30.25F
MCCOOK         LGT RAIN  42  41  96 E9        30.19S FOG
OGALLALA       LGT RAIN  41  39  92 E16G23    30.17F
$$

NEZ005>010-023>029-035>040-094-210000-
NORTH CENTRAL NEBRASKA

CITY           SKY/WX    TMP DP  RH WIND       PRES   REMARKS
VALENTINE      LGT RAIN  45  39  79 E8        30.24S
AINSWORTH      CLOUDY    46  36  67 E7        30.24S
BROKEN BOW     CLOUDY    51  33  50 S10       30.25R
O`NEILL        CLOUDY    54  33  46 E5        30.28F
ORD            CLOUDY    54  30  40 SE10      30.25R
THEDFORD       LGT RAIN  48  33  56 S5        30.24R
$$

NEZ041-046>049-061>064-073>077-083>087-210000-
SOUTH CENTRAL NEBRASKA

CITY           SKY/WX    TMP DP  RH WIND       PRES   REMARKS
GRAND ISLAND   CLOUDY    55  31  39 SE8       30.25R
AURORA         CLOUDY    56  29  34 S7        30.25R
HASTINGS       CLOUDY    54  31  41 S7        30.24S
HEBRON         CLOUDY    60  29  30 E9        30.22F
HOLDREGE       CLOUDY    48  38  68 NE6       30.22S
KEARNEY        CLOUDY    52  33  48 SE5       30.24R
YORK             N/A     57  27  30 SE6       30.25R
$$

NEZ011>018-030>034-042>045-210000-
NORTHEAST NEBRASKA

CITY           SKY/WX    TMP DP  RH WIND       PRES   REMARKS
NORFOLK        CLOUDY    55  29  36 E12       30.27F
ALBION         CLOUDY    56  32  41 E7        30.26S
BLAIR          CLOUDY    60  29  30 SE8       30.30R
COLUMBUS       CLOUDY    58  28  32 E7        30.27F
FREMONT        CLOUDY    61  27  27 E7        30.30S
TEKAMAH        CLOUDY    60  26  27 SE9       30.31R
WAYNE          CLOUDY    57  28  32 SE8       30.32S
$$

NEZ050>053-065>068-078-088>093-210000-
SOUTHEAST NEBRASKA

CITY           SKY/WX    TMP DP  RH WIND       PRES   REMARKS
LINCOLN        CLOUDY    59  25  27 SE12      30.28S
OMAHA EPPLEY   CLOUDY    62  26  25 S12       30.30R
BEATRICE       CLOUDY    61  27  27 SE9       30.25R
FALLS CITY     PTSUNNY   61  25  25 SE13      30.25R
NEBRASKA CITY  CLOUDY    60  30  31 SE9       30.27R
PLATTSMOUTH    CLOUDY    60  28  29 E9        30.28R
$$

NEZ044-045-051>053-067-210000-
OMAHA AREA

CITY           SKY/WX    TMP DP  RH WIND       PRES   REMARKS
OMAHA EPPLEY   CLOUDY    62  26  25 S12       30.30R
BLAIR          CLOUDY    60  29  30 SE8       30.30R
FREMONT        CLOUDY    61  27  27 E7        30.30S
MILLARD        CLOUDY    61  30  31 E6        30.29R
OFFUTT AFB     PTSUNNY   60  28  30 E8        30.28R
PLATTSMOUTH    CLOUDY    60  28  29 E9        30.28R
WAHOO          MOCLDY    60  22  22 SE8       30.28S
$$




USA.gov is the U.S. government's official web portal to all federal, state and local government web resources and services.